Station PILM4 - Passage Island, MI Image indicating link to RSS feed of recent meteorological observations for station PILM4


Conditions at PILM4 as of
(9:00 pm EDT on 04/20/2024)
0100 GMT on 04/21/2024:
     

Click on the graph icon in the table below to see a time series plot of the last five days of that observation.

5-day plot - Wind Direction Wind Direction (WDIR):WNW ( 290 deg true )
5-day plot - Wind Speed Wind Speed (WSPD): 19 kts
5-day plot - Wind Gust Wind Gust (GST): 20 kts
5-day plot - Atmospheric Pressure Atmospheric Pressure (PRES):30.03 in
5-day plot - Pressure Tendency Pressure Tendency (PTDY):+0.00 in ( Steady )
5-day plot - Air Temperature Air Temperature (ATMP): 39.4 °F
5-day plot - Wind Chill Wind Chill (CHILL): 29.3 °F
5-day plot - Wind Speed at 10 Meters Wind Speed at 10 meters (WSPD10M): 17 kts
5-day plot - Wind Speed at 20 Meters Wind Speed at 20 meters (WSPD20M): 19 kts
5-day plot -  Wind Speed, Wind Gust and Atmospheric Pressure Combined plot of Wind Speed, Gust, and Air Pressure
Continuous Winds
TIME
(EDT)
5-day plot - Wind Direction WDIR 5-day plot - Wind Speed WSPD
9:00 pmWNW ( 291 deg ) 19 kts
8:50 pmWNW ( 291 deg ) 20 kts
8:40 pmWNW ( 288 deg ) 18 kts
8:30 pmWNW ( 283 deg ) 17 kts
8:20 pmW ( 278 deg ) 18 kts
8:10 pmW ( 273 deg ) 18 kts
 
Peak gust during the measurement hour
TIME
(EDT)
5-day plot - Gust Direction GDR 5-day plot - Gust Speed GST
8:45 pmWNW ( 290 deg ) 22 kts
Previous observations
TIME
(EDT)
5-day plot - Wind Direction
WDIR
 
5-day plot - Wind Speed
WSPD
kts
5-day plot - Wind Gust
GST
kts
5-day plot - Wave Height
WVHT
ft
5-day plot - Dominant Wave Period
DPD
sec
5-day plot - Average Wave Period
APD
sec
5-day plot - Mean Wave Direction
MWD
 
5-day plot - Atmospheric Pressure
PRES
in
5-day plot - Pressure Tendency
PTDY
in
5-day plot - Air Temperature
ATMP
°F
5-day plot - Water Temperature
WTMP
°F
5-day plot - Dew Point
DEWP
°F
5-day plot - Salinity
SAL
psu
5-day plot - Visibility
VIS
nmi
5-day plot - Tide (above MLLW)
TIDE
ft
2024-04-20 08:00 pm W 15 17----30.03-0.01 37.6-----
2024-04-20 07:00 pm W 22 24----30.02-0.02 37.8-----
2024-04-20 06:00 pm W 21 23----30.03-0.03 38.1-----
2024-04-20 05:00 pm W 20 21----30.04-0.03 38.1-----
2024-04-20 04:00 pmWSW 20 21----30.05-0.02 37.4-----
2024-04-20 03:00 pm W 17 19----30.06+0.00 36.1-----
2024-04-20 02:00 pm W 17 19----30.06+0.01 35.2-----
2024-04-20 01:00 pm W 21 22----30.07+0.03 33.4-----
2024-04-20 12:00 pmWNW 21 23----30.06+0.04 32.7-----
2024-04-20 11:00 am NW 21 24----30.06+0.04 32.0-----
2024-04-20 10:00 am NW 24 27----30.04+0.05 32.0-----
2024-04-20 09:00 am NW 22 26----30.03+0.06 31.6-----
2024-04-20 08:00 am NW 28 32----30.01+0.06 31.5-----
2024-04-20 07:00 am NW 24 28----29.99+0.05 31.6-----
2024-04-20 06:00 amWNW 21 23----29.97+0.05 32.4-----
2024-04-20 05:00 am NW 25 27----29.96+0.04 33.8-----
2024-04-20 04:00 am NW 23 25----29.94+0.03 34.2-----
2024-04-20 03:00 amWNW 26 27----29.92+0.02 34.7-----
2024-04-20 02:00 amWNW 24 26----29.92+0.03 35.4-----
2024-04-20 01:00 amWNW 24 27----29.91+0.02 36.3-----
2024-04-20 12:00 amWNW 24 27----29.90+0.04 37.0-----
2024-04-19 11:00 pm W 25 27----29.89+0.05 37.0-----
2024-04-19 10:00 pm W 24 26----29.88+0.04 37.4-----